Tracking 19245 objects as of 14-Aug-2018
HD Live streaming from Space Station
objects crossing your sky now

INTELSAT 4-F1

Track INTELSAT 4-F1 now!
INTELSAT 4-F1 is classified as:


NORAD ID: 7815
Int'l Code: 1975-042A
Perigee: 36,035.1 km
Apogee: 36,123.3 km
Inclination: 13.7 °
Period: 1,450.7 minutes
Semi major axis: 42450 km
RCS: 12.6 m2 (large)
Launch date: May 22, 1975
Source: International Telecommunications Satellite Organization (ITSO)
Launch site: AIR FORCE EASTERN TEST RANGE (AFETR)
aabbcc
Your satellite tracking list
Your tracking list is empty




NASA's NSSDC Master Catalog

Two Line Element Set (TLE):
1  7815U 75042A   18223.98527085 -.00000084 +00000-0 +00000-0 0  9992
2  7815 013.7124 332.4346 0010382 203.4748 156.5479 00.99262002093502
Source of the keplerian elements: AFSPC